Precipitable_Water
0.31 0.29 0.27 0.27 0.28 0.29 0.29 0.29 0.28 0.26 0.27 0.21 0.23 0.25 0.13 0.13 0.10 0.19 0.24 0.26 0.19 0.13 0.09 0.11 0.10 0.09 0.12 0.17 0.15 0.17 0.14 0.13 0.14 0.12 0.14 0.11 0.14 0.13 0.11 0.10 0.11 0.12 0.10 0.09 0.10 0.10 0.09 0.09 0.08 0.09 0.09 0.11 0.13 0.16 0.19 0.19 0.18 0.17 0.14 0.16 0.17 0.16 0.11 0.08 0.06 0.07 0.10 0.13 0.12 0.12 0.13 0.13 0.10 0.12 0.13 0.12 0.11 0.12 0.10 0.10 0.11 0.09 0.08 0.08 0.09 0.07 0.05
0.30 0.29 0.27 0.25 0.25 0.26 0.27 0.27 0.26 0.25 0.26 0.29 0.25 0.14 0.11 0.12 0.12 0.15 0.23 0.30 0.26 0.15 0.05 0.06 0.07 0.09 0.12 0.12 0.10 0.14 0.12 0.11 0.11 0.11 0.12 0.10 0.10 0.10 0.10 0.14 0.13 0.10 0.14 0.11 0.08 0.11 0.06 0.11 0.10 0.09 0.10 0.10 0.18 0.18 0.18 0.19 0.15 0.15 0.13 0.10 0.15 0.08 0.10 0.09 0.06 0.05 0.04 0.05 0.06 0.07 0.11 0.11 0.09 0.08 0.10 0.13 0.14 0.14 0.14 0.14 0.14 0.09 0.07 0.09 0.08 0.05 0.04
0.28 0.27 0.26 0.24 0.23 0.23 0.23 0.24 0.24 0.24 0.25 0.25 0.22 0.12 0.13 0.12 0.13 0.12 0.15 0.21 0.21 0.07 0.11 0.07 0.07 0.08 0.08 0.08 0.08 0.10 0.11 0.13 0.13 0.12 0.10 0.14 0.12 0.13 0.10 0.12 0.13 0.12 0.14 0.12 0.13 0.13 0.10 0.08 0.11 0.11 0.10 0.11 0.18 0.17 0.17 0.19 0.16 0.19 0.19 0.18 0.20 0.11 0.09 0.09 0.05 0.04 0.03 0.03 0.04 0.04 0.05 0.06 0.07 0.08 0.11 0.14 0.13 0.13 0.12 0.09 0.11 0.08 0.08 0.10 0.09 0.07 0.07
0.26 0.25 0.25 0.23 0.22 0.22 0.22 0.21 0.22 0.23 0.23 0.23 0.25 0.14 0.18 0.10 0.05 0.08 0.09 0.11 0.11 0.13 0.15 0.11 0.08 0.07 0.08 0.07 0.09 0.11 0.09 0.13 0.14 0.16 0.12 0.13 0.14 0.13 0.13 0.14 0.15 0.11 0.12 0.09 0.10 0.11 0.14 0.11 0.09 0.10 0.09 0.11 0.15 0.16 0.18 0.18 0.18 0.18 0.20 0.18 0.17 0.11 0.11 0.10 0.09 0.07 0.06 0.06 0.07 0.09 0.12 0.10 0.07 0.07 0.08 0.11 0.14 0.15 0.13 0.12 0.10 0.08 0.08 0.07 0.07 0.07 0.08
0.26 0.25 0.24 0.24 0.22 0.21 0.20 0.19 0.19 0.20 0.20 0.23 0.21 0.15 0.11 0.10 0.06 0.08 0.06 0.11 0.10 0.10 0.13 0.12 0.13 0.08 0.12 0.06 0.10 0.08 0.09 0.10 0.12 0.16 0.09 0.12 0.12 0.14 0.13 0.12 0.09 0.10 0.10 0.09 0.10 0.11 0.09 0.14 0.12 0.09 0.09 0.11 0.13 0.18 0.17 0.18 0.19 0.18 0.16 0.19 0.15 0.12 0.08 0.09 0.11 0.10 0.09 0.10 0.10 0.10 0.11 0.09 0.08 0.09 0.08 0.10 0.13 0.13 0.12 0.10 0.07 0.11 0.11 0.07 0.07 0.08 0.09
0.26 0.24 0.24 0.23 0.21 0.20 0.19 0.19 0.18 0.16 0.17 0.21 0.25 0.09 0.12 0.06 0.10 0.14 0.15 0.13 0.06 0.07 0.08 0.12 0.10 0.11 0.09 0.08 0.12 0.08 0.08 0.08 0.07 0.13 0.13 0.13 0.14 0.11 0.14 0.13 0.13 0.13 0.10 0.11 0.09 0.09 0.09 0.10 0.08 0.10 0.11 0.10 0.12 0.12 0.17 0.15 0.17 0.16 0.15 0.18 0.14 0.10 0.07 0.09 0.10 0.09 0.10 0.11 0.11 0.11 0.11 0.11 0.10 0.10 0.10 0.10 0.11 0.13 0.11 0.10 0.11 0.12 0.10 0.07 0.07 0.09 0.09
0.25 0.24 0.23 0.22 0.21 0.19 0.18 0.18 0.17 0.16 0.14 0.19 0.25 0.07 0.10 0.11 0.11 0.12 0.16 0.07 0.09 0.10 0.10 0.12 0.09 0.08 0.09 0.09 0.10 0.08 0.08 0.07 0.09 0.08 0.10 0.13 0.10 0.13 0.08 0.09 0.12 0.13 0.14 0.12 0.09 0.10 0.07 0.07 0.10 0.09 0.09 0.10 0.11 0.09 0.12 0.17 0.16 0.15 0.14 0.15 0.15 0.11 0.07 0.10 0.11 0.08 0.08 0.09 0.11 0.12 0.12 0.11 0.10 0.09 0.11 0.12 0.11 0.11 0.12 0.11 0.12 0.13 0.12 0.11 0.11 0.12 0.11
0.24 0.23 0.22 0.21 0.21 0.20 0.19 0.18 0.19 0.20 0.21 0.23 0.11 0.12 0.08 0.07 0.07 0.07 0.11 0.10 0.09 0.09 0.10 0.10 0.09 0.07 0.10 0.06 0.08 0.09 0.09 0.08 0.11 0.12 0.10 0.08 0.10 0.13 0.10 0.10 0.13 0.14 0.13 0.13 0.10 0.11 0.12 0.10 0.08 0.11 0.11 0.10 0.12 0.09 0.09 0.09 0.13 0.14 0.12 0.13 0.15 0.10 0.07 0.11 0.10 0.08 0.07 0.08 0.11 0.13 0.12 0.12 0.09 0.09 0.11 0.11 0.11 0.11 0.11 0.12 0.13 0.15 0.14 0.13 0.13 0.13 0.12
0.24 0.23 0.22 0.20 0.20 0.20 0.18 0.18 0.19 0.19 0.24 0.10 0.10 0.10 0.13 0.12 0.13 0.10 0.07 0.06 0.08 0.09 0.09 0.08 0.07 0.06 0.08 0.07 0.09 0.11 0.09 0.09 0.11 0.10 0.14 0.12 0.10 0.12 0.11 0.13 0.13 0.15 0.14 0.13 0.12 0.14 0.13 0.12 0.12 0.13 0.13 0.09 0.13 0.09 0.10 0.13 0.09 0.12 0.11 0.13 0.12 0.12 0.08 0.11 0.10 0.08 0.06 0.07 0.08 0.09 0.10 0.10 0.09 0.10 0.10 0.09 0.09 0.09 0.09 0.09 0.11 0.11 0.11 0.12 0.13 0.12 0.11
0.24 0.23 0.22 0.20 0.19 0.19 0.18 0.17 0.17 0.18 0.19 0.09 0.10 0.08 0.12 0.12 0.13 0.16 0.12 0.06 0.09 0.08 0.11 0.11 0.11 0.06 0.08 0.09 0.09 0.09 0.09 0.12 0.14 0.11 0.15 0.15 0.16 0.15 0.15 0.14 0.14 0.12 0.12 0.10 0.11 0.14 0.14 0.14 0.15 0.16 0.17 0.18 0.16 0.17 0.16 0.16 0.13 0.11 0.12 0.14 0.11 0.12 0.10 0.09 0.10 0.07 0.06 0.07 0.09 0.09 0.10 0.10 0.07 0.07 0.08 0.10 0.11 0.12 0.11 0.11 0.12 0.13 0.15 0.14 0.12 0.12 0.14
0.24 0.24 0.23 0.21 0.19 0.17 0.17 0.16 0.16 0.16 0.14 0.08 0.08 0.09 0.12 0.11 0.08 0.09 0.09 0.06 0.07 0.08 0.08 0.07 0.06 0.07 0.12 0.11 0.10 0.12 0.11 0.12 0.14 0.10 0.10 0.18 0.16 0.18 0.17 0.14 0.11 0.10 0.10 0.13 0.18 0.19 0.18 0.19 0.19 0.19 0.17 0.16 0.15 0.16 0.16 0.17 0.17 0.15 0.13 0.13 0.13 0.13 0.12 0.11 0.13 0.09 0.07 0.08 0.10 0.11 0.08 0.05 0.05 0.08 0.09 0.11 0.11 0.11 0.10 0.11 0.12 0.13 0.16 0.16 0.17 0.16 0.17
0.23 0.23 0.23 0.22 0.20 0.18 0.17 0.16 0.15 0.15 0.15 0.15 0.13 0.12 0.14 0.15 0.15 0.11 0.07 0.05 0.06 0.08 0.07 0.07 0.09 0.10 0.10 0.11 0.12 0.11 0.12 0.12 0.13 0.16 0.11 0.13 0.16 0.18 0.18 0.16 0.14 0.09 0.17 0.22 0.21 0.21 0.21 0.21 0.20 0.19 0.18 0.18 0.17 0.17 0.17 0.15 0.16 0.18 0.18 0.14 0.13 0.13 0.13 0.12 0.14 0.11 0.08 0.10 0.11 0.08 0.05 0.05 0.08 0.10 0.11 0.13 0.15 0.15 0.15 0.14 0.15 0.16 0.17 0.18 0.18 0.20 0.22
0.22 0.23 0.23 0.23 0.22 0.21 0.19 0.17 0.16 0.15 0.15 0.14 0.11 0.09 0.14 0.19 0.15 0.09 0.08 0.07 0.07 0.08 0.07 0.08 0.11 0.11 0.12 0.12 0.12 0.12 0.13 0.13 0.15 0.15 0.15 0.14 0.14 0.18 0.18 0.15 0.13 0.16 0.24 0.19 0.20 0.18 0.12 0.10 0.12 0.13 0.13 0.16 0.17 0.17 0.15 0.15 0.15 0.17 0.17 0.18 0.15 0.13 0.13 0.13 0.13 0.14 0.13 0.10 0.09 0.06 0.05 0.08 0.11 0.12 0.14 0.17 0.17 0.19 0.17 0.15 0.15 0.17 0.19 0.22 0.22 0.24 0.26
0.21 0.22 0.22 0.23 0.23 0.22 0.21 0.19 0.18 0.18 0.17 0.15 0.12 0.14 0.16 0.17 0.10 0.09 0.09 0.07 0.08 0.10 0.10 0.10 0.11 0.11 0.11 0.13 0.12 0.13 0.13 0.13 0.13 0.15 0.13 0.16 0.14 0.15 0.19 0.20 0.20 0.23 0.22 0.22 0.17 0.15 0.11 0.11 0.09 0.08 0.09 0.11 0.12 0.11 0.12 0.15 0.16 0.16 0.16 0.17 0.19 0.16 0.15 0.15 0.11 0.15 0.09 0.09 0.09 0.09 0.11 0.11 0.10 0.11 0.14 0.16 0.16 0.17 0.17 0.14 0.15 0.21 0.25 0.25 0.26 0.27 0.29
0.20 0.21 0.22 0.22 0.23 0.23 0.23 0.22 0.21 0.21 0.21 0.20 0.16 0.16 0.17 0.18 0.17 0.12 0.13 0.10 0.08 0.11 0.14 0.10 0.11 0.11 0.12 0.12 0.13 0.12 0.12 0.13 0.12 0.12 0.15 0.17 0.15 0.18 0.20 0.23 0.24 0.23 0.23 0.17 0.13 0.14 0.11 0.10 0.07 0.07 0.07 0.07 0.06 0.07 0.11 0.10 0.16 0.19 0.19 0.19 0.19 0.19 0.14 0.16 0.13 0.11 0.13 0.11 0.09 0.09 0.08 0.06 0.08 0.12 0.19 0.22 0.22 0.22 0.22 0.19 0.15 0.24 0.26 0.29 0.29 0.28 0.29
0.20 0.20 0.21 0.22 0.23 0.23 0.23 0.23 0.23 0.22 0.22 0.23 0.18 0.17 0.19 0.23 0.22 0.20 0.13 0.11 0.10 0.08 0.13 0.16 0.16 0.14 0.12 0.13 0.14 0.12 0.11 0.12 0.12 0.13 0.12 0.14 0.15 0.19 0.23 0.24 0.23 0.23 0.20 0.17 0.14 0.12 0.11 0.08 0.07 0.08 0.07 0.07 0.10 0.10 0.08 0.10 0.10 0.16 0.19 0.19 0.18 0.19 0.19 0.18 0.15 0.12 0.12 0.11 0.10 0.09 0.08 0.09 0.13 0.17 0.21 0.23 0.24 0.23 0.24 0.19 0.14 0.26 0.29 0.29 0.29 0.28 0.28
0.21 0.20 0.20 0.21 0.22 0.23 0.24 0.24 0.24 0.24 0.24 0.23 0.18 0.18 0.19 0.27 0.21 0.17 0.13 0.14 0.11 0.10 0.19 0.18 0.17 0.15 0.16 0.13 0.15 0.13 0.14 0.11 0.12 0.11 0.11 0.12 0.14 0.15 0.22 0.23 0.24 0.21 0.17 0.14 0.13 0.12 0.09 0.09 0.10 0.09 0.10 0.12 0.09 0.09 0.10 0.11 0.09 0.09 0.14 0.16 0.15 0.15 0.16 0.17 0.14 0.12 0.12 0.12 0.11 0.10 0.12 0.12 0.20 0.23 0.25 0.27 0.26 0.26 0.22 0.13 0.14 0.26 0.27 0.27 0.28 0.28 0.26
0.22 0.22 0.21 0.20 0.21 0.22 0.23 0.23 0.24 0.26 0.26 0.27 0.21 0.18 0.21 0.28 0.29 0.25 0.16 0.12 0.10 0.13 0.18 0.19 0.18 0.15 0.12 0.14 0.14 0.15 0.18 0.16 0.15 0.16 0.13 0.16 0.16 0.15 0.17 0.19 0.15 0.22 0.21 0.11 0.12 0.11 0.09 0.10 0.08 0.09 0.08 0.12 0.12 0.12 0.08 0.11 0.09 0.09 0.09 0.10 0.11 0.13 0.15 0.16 0.12 0.12 0.13 0.13 0.13 0.14 0.15 0.21 0.25 0.27 0.30 0.29 0.27 0.23 0.16 0.13 0.19 0.27 0.27 0.28 0.28 0.27 0.27
0.22 0.22 0.22 0.21 0.20 0.21 0.22 0.23 0.24 0.25 0.26 0.27 0.29 0.21 0.22 0.28 0.28 0.28 0.17 0.14 0.13 0.10 0.18 0.22 0.24 0.19 0.21 0.24 0.18 0.18 0.18 0.17 0.16 0.13 0.13 0.14 0.14 0.17 0.21 0.18 0.19 0.11 0.16 0.11 0.13 0.11 0.10 0.10 0.13 0.12 0.09 0.11 0.13 0.10 0.12 0.10 0.09 0.11 0.12 0.11 0.11 0.12 0.14 0.14 0.16 0.14 0.12 0.13 0.12 0.12 0.14 0.21 0.25 0.28 0.28 0.27 0.21 0.14 0.14 0.23 0.29 0.28 0.27 0.28 0.27 0.26 0.26
0.22 0.22 0.22 0.21 0.20 0.20 0.21 0.23 0.24 0.24 0.26 0.28 0.23 0.18 0.24 0.29 0.30 0.27 0.17 0.11 0.14 0.14 0.20 0.22 0.25 0.20 0.25 0.22 0.18 0.17 0.19 0.18 0.17 0.14 0.11 0.09 0.16 0.18 0.18 0.10 0.18 0.16 0.13 0.13 0.10 0.13 0.11 0.09 0.11 0.13 0.11 0.12 0.13 0.15 0.12 0.11 0.13 0.12 0.13 0.14 0.12 0.13 0.12 0.11 0.12 0.14 0.15 0.13 0.12 0.11 0.10 0.18 0.26 0.26 0.23 0.24 0.19 0.21 0.26 0.27 0.27 0.28 0.27 0.26 0.26 0.25 0.24
0.22 0.22 0.21 0.21 0.21 0.21 0.20 0.22 0.23 0.24 0.25 0.27 0.28 0.20 0.19 0.27 0.29 0.28 0.26 0.18 0.14 0.13 0.18 0.30 0.31 0.26 0.27 0.24 0.25 0.24 0.21 0.15 0.16 0.14 0.15 0.15 0.17 0.16 0.07 0.07 0.12 0.13 0.11 0.12 0.09 0.11 0.13 0.11 0.13 0.12 0.14 0.13 0.14 0.14 0.10 0.11 0.11 0.14 0.15 0.15 0.14 0.18 0.13 0.13 0.13 0.15 0.12 0.12 0.11 0.13 0.19 0.23 0.26 0.23 0.19 0.21 0.23 0.26 0.27 0.25 0.23 0.26 0.26 0.25 0.24 0.22 0.22
0.22 0.21 0.21 0.21 0.21 0.21 0.20 0.20 0.22 0.23 0.25 0.26 0.26 0.22 0.18 0.25 0.29 0.28 0.26 0.24 0.17 0.16 0.22 0.30 0.33 0.30 0.32 0.33 0.31 0.30 0.27 0.25 0.25 0.25 0.17 0.15 0.19 0.15 0.15 0.18 0.16 0.15 0.16 0.17 0.14 0.14 0.16 0.16 0.16 0.14 0.12 0.13 0.16 0.12 0.14 0.12 0.10 0.12 0.17 0.17 0.12 0.20 0.16 0.19 0.15 0.18 0.16 0.15 0.18 0.22 0.23 0.23 0.25 0.25 0.24 0.24 0.25 0.25 0.25 0.25 0.23 0.23 0.23 0.24 0.22 0.21 0.21
0.22 0.22 0.21 0.21 0.21 0.21 0.21 0.21 0.21 0.22 0.24 0.26 0.25 0.20 0.19 0.23 0.25 0.31 0.29 0.18 0.25 0.28 0.31 0.30 0.32 0.33 0.35 0.34 0.36 0.35 0.34 0.35 0.31 0.29 0.26 0.17 0.16 0.19 0.16 0.16 0.16 0.20 0.20 0.21 0.15 0.15 0.16 0.17 0.14 0.16 0.14 0.15 0.14 0.13 0.13 0.13 0.12 0.14 0.13 0.18 0.17 0.24 0.23 0.23 0.19 0.18 0.22 0.22 0.22 0.24 0.24 0.24 0.23 0.24 0.24 0.23 0.23 0.25 0.25 0.23 0.22 0.23 0.23 0.22 0.20 0.19 0.19
0.22 0.22 0.22 0.21 0.21 0.20 0.21 0.22 0.22 0.23 0.23 0.26 0.27 0.23 0.22 0.25 0.27 0.29 0.24 0.22 0.18 0.17 0.25 0.28 0.26 0.17 0.21 0.22 0.30 0.34 0.34 0.31 0.31 0.30 0.32 0.27 0.14 0.14 0.21 0.21 0.22 0.21 0.20 0.23 0.24 0.19 0.19 0.19 0.17 0.18 0.13 0.15 0.17 0.14 0.12 0.11 0.12 0.16 0.15 0.15 0.18 0.20 0.23 0.20 0.17 0.20 0.17 0.14 0.22 0.21 0.20 0.20 0.21 0.22 0.22 0.23 0.24 0.23 0.24 0.23 0.22 0.22 0.21 0.20 0.19 0.18 0.17
0.22 0.22 0.22 0.22 0.22 0.21 0.20 0.22 0.23 0.24 0.26 0.26 0.26 0.28 0.28 0.24 0.28 0.28 0.21 0.12 0.15 0.15 0.11 0.17 0.21 0.27 0.32 0.35 0.35 0.30 0.29 0.32 0.34 0.32 0.31 0.29 0.24 0.16 0.15 0.21 0.25 0.21 0.20 0.24 0.27 0.24 0.23 0.17 0.17 0.17 0.13 0.17 0.19 0.13 0.16 0.14 0.14 0.19 0.14 0.16 0.17 0.15 0.23 0.18 0.18 0.17 0.16 0.16 0.19 0.21 0.21 0.21 0.21 0.21 0.21 0.20 0.21 0.22 0.23 0.22 0.22 0.21 0.20 0.18 0.17 0.16 0.15
0.21 0.22 0.22 0.22 0.22 0.22 0.21 0.21 0.25 0.27 0.29 0.30 0.28 0.24 0.22 0.24 0.30 0.32 0.27 0.22 0.20 0.19 0.13 0.13 0.16 0.34 0.33 0.30 0.26 0.26 0.32 0.32 0.29 0.29 0.29 0.29 0.29 0.28 0.24 0.25 0.25 0.29 0.27 0.27 0.26 0.22 0.21 0.20 0.20 0.20 0.17 0.16 0.22 0.16 0.14 0.17 0.17 0.20 0.17 0.18 0.22 0.22 0.23 0.17 0.19 0.17 0.18 0.19 0.18 0.18 0.18 0.18 0.19 0.19 0.20 0.21 0.21 0.21 0.21 0.21 0.20 0.19 0.16 0.15 0.15 0.16 0.16
0.22 0.22 0.22 0.22 0.22 0.22 0.22 0.23 0.25 0.30 0.31 0.32 0.30 0.30 0.29 0.30 0.33 0.27 0.21 0.19 0.14 0.14 0.17 0.13 0.19 0.25 0.30 0.27 0.30 0.33 0.33 0.31 0.29 0.27 0.28 0.29 0.28 0.29 0.27 0.25 0.23 0.25 0.24 0.24 0.26 0.24 0.24 0.21 0.20 0.17 0.19 0.18 0.21 0.19 0.19 0.17 0.17 0.17 0.17 0.20 0.23 0.20 0.17 0.19 0.18 0.15 0.14 0.14 0.17 0.19 0.16 0.16 0.18 0.20 0.20 0.21 0.22 0.21 0.21 0.20 0.17 0.15 0.15 0.15 0.16 0.16 0.17
0.22 0.22 0.22 0.22 0.22 0.22 0.23 0.25 0.27 0.31 0.33 0.33 0.33 0.31 0.33 0.29 0.32 0.34 0.34 0.30 0.18 0.11 0.12 0.13 0.17 0.22 0.33 0.26 0.31 0.32 0.31 0.30 0.28 0.26 0.26 0.26 0.27 0.27 0.26 0.24 0.25 0.23 0.23 0.23 0.20 0.21 0.20 0.18 0.17 0.22 0.22 0.23 0.19 0.16 0.20 0.21 0.21 0.19 0.19 0.21 0.22 0.19 0.19 0.19 0.16 0.16 0.16 0.20 0.21 0.21 0.20 0.20 0.20 0.20 0.20 0.21 0.21 0.20 0.18 0.15 0.15 0.15 0.16 0.17 0.16 0.16 0.17
0.22 0.22 0.22 0.22 0.22 0.22 0.25 0.28 0.30 0.32 0.34 0.35 0.34 0.31 0.29 0.33 0.35 0.35 0.36 0.36 0.32 0.21 0.18 0.20 0.24 0.23 0.17 0.21 0.33 0.29 0.31 0.28 0.26 0.25 0.24 0.24 0.24 0.25 0.24 0.25 0.24 0.25 0.26 0.26 0.24 0.23 0.21 0.21 0.24 0.21 0.19 0.24 0.20 0.16 0.17 0.14 0.15 0.15 0.19 0.23 0.23 0.23 0.23 0.22 0.20 0.21 0.21 0.22 0.21 0.21 0.20 0.18 0.19 0.19 0.19 0.19 0.18 0.17 0.15 0.15 0.16 0.17 0.17 0.18 0.18 0.19 0.19
0.21 0.22 0.23 0.22 0.22 0.23 0.27 0.31 0.33 0.33 0.35 0.35 0.32 0.23 0.19 0.25 0.34 0.33 0.36 0.35 0.32 0.27 0.17 0.15 0.14 0.16 0.29 0.29 0.24 0.27 0.26 0.27 0.25 0.24 0.23 0.23 0.23 0.23 0.24 0.24 0.24 0.29 0.27 0.24 0.23 0.19 0.22 0.21 0.22 0.24 0.26 0.29 0.20 0.19 0.16 0.16 0.16 0.18 0.23 0.24 0.24 0.23 0.23 0.22 0.23 0.20 0.20 0.22 0.22 0.21 0.20 0.19 0.19 0.18 0.16 0.16 0.16 0.16 0.16 0.16 0.17 0.18 0.19 0.21 0.21 0.21 0.22
0.21 0.22 0.23 0.23 0.23 0.25 0.28 0.32 0.34 0.35 0.34 0.31 0.28 0.17 0.16 0.15 0.23 0.37 0.37 0.36 0.36 0.27 0.20 0.18 0.15 0.23 0.21 0.29 0.25 0.22 0.23 0.23 0.22 0.23 0.23 0.24 0.24 0.25 0.27 0.28 0.28 0.29 0.23 0.24 0.24 0.23 0.24 0.19 0.20 0.21 0.25 0.25 0.23 0.19 0.17 0.16 0.15 0.18 0.22 0.22 0.22 0.22 0.22 0.22 0.23 0.23 0.22 0.22 0.22 0.20 0.18 0.16 0.15 0.14 0.14 0.15 0.16 0.17 0.17 0.18 0.19 0.20 0.21 0.21 0.22 0.22 0.23
0.21 0.22 0.23 0.24 0.25 0.28 0.30 0.33 0.36 0.36 0.33 0.28 0.24 0.22 0.23 0.25 0.32 0.38 0.40 0.37 0.35 0.28 0.19 0.15 0.15 0.17 0.15 0.20 0.23 0.27 0.23 0.22 0.23 0.24 0.25 0.26 0.23 0.27 0.26 0.28 0.25 0.29 0.27 0.23 0.25 0.24 0.21 0.22 0.20 0.20 0.20 0.25 0.23 0.19 0.19 0.17 0.15 0.18 0.20 0.20 0.21 0.21 0.21 0.21 0.21 0.22 0.21 0.21 0.19 0.15 0.12 0.12 0.14 0.14 0.14 0.15 0.16 0.17 0.18 0.18 0.20 0.21 0.21 0.22 0.22 0.22 0.23
0.21 0.22 0.23 0.26 0.29 0.30 0.33 0.35 0.38 0.38 0.36 0.40 0.44 0.45 0.45 0.44 0.43 0.41 0.40 0.38 0.32 0.22 0.23 0.17 0.14 0.16 0.16 0.17 0.22 0.25 0.24 0.20 0.21 0.23 0.20 0.27 0.23 0.26 0.24 0.29 0.28 0.27 0.32 0.25 0.21 0.18 0.22 0.21 0.21 0.18 0.22 0.27 0.20 0.19 0.19 0.16 0.17 0.19 0.20 0.21 0.21 0.21 0.21 0.21 0.21 0.20 0.19 0.18 0.16 0.11 0.11 0.12 0.14 0.15 0.16 0.16 0.17 0.17 0.18 0.19 0.21 0.22 0.22 0.21 0.21 0.21 0.22
0.22 0.23 0.25 0.27 0.31 0.32 0.33 0.37 0.40 0.41 0.43 0.38 0.31 0.34 0.41 0.45 0.43 0.41 0.42 0.39 0.27 0.26 0.24 0.18 0.15 0.14 0.14 0.22 0.17 0.24 0.25 0.18 0.19 0.23 0.18 0.27 0.27 0.26 0.23 0.24 0.27 0.21 0.27 0.22 0.23 0.23 0.24 0.22 0.19 0.20 0.23 0.21 0.24 0.19 0.15 0.17 0.19 0.20 0.21 0.21 0.21 0.20 0.20 0.19 0.17 0.16 0.15 0.14 0.13 0.13 0.14 0.15 0.16 0.16 0.16 0.16 0.16 0.18 0.19 0.20 0.21 0.21 0.21 0.21 0.21 0.22 0.23
0.23 0.24 0.27 0.30 0.31 0.34 0.33 0.36 0.37 0.35 0.30 0.33 0.35 0.41 0.44 0.44 0.43 0.42 0.41 0.35 0.24 0.21 0.20 0.20 0.19 0.14 0.14 0.14 0.14 0.19 0.26 0.21 0.19 0.23 0.20 0.23 0.29 0.24 0.24 0.20 0.23 0.19 0.21 0.30 0.22 0.20 0.18 0.20 0.23 0.17 0.15 0.22 0.19 0.17 0.17 0.18 0.19 0.18 0.19 0.18 0.18 0.18 0.18 0.16 0.15 0.15 0.13 0.12 0.13 0.13 0.14 0.14 0.14 0.14 0.15 0.15 0.16 0.17 0.18 0.19 0.21 0.22 0.21 0.21 0.22 0.23 0.24
0.24 0.27 0.29 0.32 0.33 0.34 0.36 0.33 0.34 0.31 0.29 0.30 0.34 0.43 0.45 0.44 0.43 0.42 0.41 0.39 0.30 0.22 0.20 0.19 0.19 0.16 0.16 0.13 0.13 0.18 0.27 0.20 0.26 0.23 0.23 0.26 0.24 0.28 0.24 0.22 0.17 0.23 0.27 0.23 0.17 0.20 0.18 0.24 0.19 0.13 0.19 0.15 0.15 0.17 0.17 0.18 0.18 0.18 0.18 0.17 0.17 0.17 0.17 0.15 0.13 0.12 0.12 0.13 0.13 0.14 0.14 0.14 0.14 0.14 0.15 0.16 0.16 0.17 0.18 0.19 0.20 0.21 0.21 0.21 0.22 0.23 0.24
0.25 0.28 0.30 0.31 0.31 0.30 0.26 0.28 0.37 0.36 0.34 0.41 0.43 0.46 0.43 0.43 0.45 0.43 0.37 0.31 0.31 0.31 0.22 0.20 0.17 0.17 0.16 0.16 0.20 0.25 0.24 0.18 0.23 0.21 0.22 0.22 0.20 0.23 0.23 0.20 0.17 0.21 0.20 0.18 0.18 0.17 0.22 0.27 0.18 0.14 0.16 0.14 0.17 0.20 0.20 0.20 0.19 0.18 0.17 0.17 0.17 0.17 0.15 0.13 0.13 0.12 0.12 0.12 0.13 0.13 0.13 0.13 0.14 0.15 0.15 0.16 0.16 0.18 0.19 0.19 0.20 0.21 0.21 0.21 0.22 0.23 0.24
0.26 0.28 0.27 0.24 0.25 0.22 0.23 0.28 0.32 0.41 0.47 0.44 0.45 0.36 0.35 0.33 0.26 0.28 0.28 0.25 0.28 0.29 0.25 0.23 0.18 0.21 0.25 0.21 0.16 0.24 0.24 0.22 0.25 0.20 0.21 0.24 0.20 0.20 0.23 0.20 0.21 0.19 0.12 0.13 0.16 0.21 0.19 0.18 0.15 0.14 0.15 0.21 0.21 0.21 0.21 0.20 0.20 0.19 0.18 0.17 0.16 0.14 0.13 0.13 0.13 0.12 0.12 0.12 0.12 0.13 0.14 0.14 0.14 0.14 0.15 0.15 0.16 0.18 0.19 0.20 0.21 0.22 0.22 0.22 0.23 0.24 0.24
0.25 0.26 0.25 0.25 0.23 0.22 0.23 0.28 0.43 0.45 0.44 0.44 0.38 0.32 0.27 0.29 0.25 0.23 0.23 0.26 0.27 0.21 0.25 0.22 0.18 0.23 0.20 0.19 0.20 0.28 0.26 0.22 0.21 0.21 0.18 0.23 0.21 0.17 0.21 0.15 0.19 0.18 0.13 0.13 0.16 0.22 0.12 0.13 0.15 0.14 0.14 0.19 0.22 0.20 0.21 0.21 0.20 0.19 0.18 0.15 0.12 0.12 0.13 0.13 0.14 0.14 0.14 0.14 0.14 0.14 0.15 0.14 0.14 0.15 0.16 0.17 0.17 0.19 0.20 0.21 0.21 0.22 0.23 0.23 0.24 0.24 0.24
0.22 0.19 0.21 0.23 0.23 0.26 0.36 0.41 0.43 0.39 0.38 0.30 0.30 0.28 0.22 0.26 0.21 0.19 0.26 0.22 0.21 0.23 0.23 0.18 0.23 0.23 0.23 0.21 0.21 0.21 0.31 0.24 0.19 0.19 0.20 0.21 0.29 0.18 0.21 0.19 0.19 0.16 0.11 0.11 0.14 0.20 0.13 0.10 0.12 0.12 0.14 0.19 0.18 0.20 0.20 0.19 0.18 0.17 0.14 0.11 0.12 0.13 0.14 0.14 0.14 0.15 0.15 0.15 0.15 0.15 0.15 0.16 0.16 0.17 0.18 0.18 0.19 0.19 0.20 0.21 0.22 0.22 0.23 0.24 0.24 0.24 0.24
0.22 0.23 0.24 0.22 0.27 0.33 0.34 0.38 0.39 0.36 0.30 0.27 0.26 0.25 0.23 0.20 0.24 0.24 0.23 0.20 0.19 0.19 0.26 0.22 0.23 0.22 0.26 0.25 0.27 0.22 0.28 0.30 0.28 0.28 0.25 0.20 0.28 0.26 0.19 0.15 0.22 0.15 0.12 0.11 0.18 0.17 0.14 0.12 0.11 0.11 0.15 0.18 0.18 0.19 0.19 0.18 0.16 0.12 0.11 0.12 0.13 0.15 0.15 0.15 0.15 0.15 0.15 0.15 0.15 0.15 0.16 0.16 0.17 0.18 0.19 0.20 0.20 0.20 0.21 0.22 0.22 0.23 0.23 0.24 0.24 0.24 0.25
0.25 0.25 0.28 0.35 0.36 0.35 0.33 0.32 0.30 0.28 0.29 0.27 0.22 0.20 0.22 0.22 0.24 0.23 0.22 0.17 0.17 0.20 0.23 0.22 0.19 0.20 0.22 0.25 0.24 0.25 0.26 0.32 0.28 0.27 0.23 0.18 0.26 0.20 0.17 0.18 0.20 0.13 0.10 0.17 0.18 0.15 0.13 0.10 0.10 0.12 0.17 0.19 0.19 0.19 0.17 0.14 0.11 0.11 0.12 0.14 0.15 0.15 0.15 0.15 0.15 0.15 0.15 0.15 0.16 0.16 0.16 0.17 0.17 0.18 0.19 0.21 0.21 0.22 0.22 0.23 0.23 0.23 0.24 0.24 0.25 0.25 0.26
0.35 0.35 0.33 0.28 0.29 0.26 0.28 0.24 0.27 0.27 0.21 0.21 0.20 0.19 0.21 0.18 0.20 0.18 0.19 0.24 0.27 0.23 0.22 0.28 0.26 0.29 0.31 0.31 0.26 0.30 0.26 0.31 0.26 0.25 0.22 0.19 0.24 0.22 0.17 0.15 0.14 0.10 0.13 0.18 0.14 0.12 0.10 0.10 0.10 0.15 0.17 0.17 0.17 0.16 0.13 0.12 0.12 0.13 0.14 0.14 0.15 0.15 0.16 0.15 0.15 0.15 0.16 0.16 0.16 0.16 0.17 0.17 0.18 0.19 0.21 0.22 0.23 0.23 0.23 0.24 0.24 0.24 0.25 0.25 0.25 0.26 0.26
0.32 0.32 0.26 0.25 0.23 0.24 0.26 0.19 0.27 0.23 0.21 0.23 0.20 0.18 0.19 0.17 0.20 0.20 0.18 0.21 0.22 0.22 0.25 0.21 0.23 0.23 0.21 0.27 0.24 0.25 0.26 0.28 0.30 0.23 0.22 0.24 0.19 0.15 0.14 0.11 0.11 0.16 0.19 0.13 0.12 0.10 0.10 0.12 0.16 0.16 0.16 0.15 0.14 0.12 0.12 0.12 0.13 0.14 0.14 0.14 0.15 0.15 0.15 0.15 0.15 0.15 0.15 0.16 0.16 0.17 0.17 0.18 0.19 0.21 0.22 0.23 0.23 0.23 0.23 0.24 0.25 0.25 0.25 0.26 0.26 0.26 0.26
0.23 0.22 0.23 0.22 0.21 0.23 0.22 0.18 0.25 0.22 0.19 0.21 0.23 0.21 0.20 0.18 0.20 0.20 0.19 0.25 0.24 0.21 0.25 0.26 0.25 0.25 0.23 0.26 0.28 0.30 0.27 0.21 0.27 0.20 0.17 0.20 0.16 0.17 0.14 0.12 0.15 0.15 0.12 0.10 0.11 0.11 0.11 0.11 0.14 0.14 0.13 0.12 0.12 0.12 0.13 0.13 0.14 0.14 0.14 0.14 0.15 0.15 0.16 0.15 0.15 0.15 0.16 0.16 0.16 0.17 0.18 0.19 0.20 0.21 0.22 0.23 0.24 0.25 0.25 0.25 0.25 0.25 0.26 0.25 0.25 0.25 0.26
0.21 0.21 0.21 0.19 0.18 0.21 0.21 0.20 0.21 0.19 0.24 0.25 0.24 0.24 0.23 0.24 0.22 0.22 0.26 0.27 0.24 0.24 0.24 0.25 0.26 0.26 0.24 0.27 0.22 0.21 0.24 0.23 0.19 0.20 0.20 0.19 0.14 0.12 0.16 0.19 0.18 0.13 0.11 0.12 0.09 0.08 0.09 0.12 0.13 0.13 0.12 0.12 0.13 0.13 0.14 0.14 0.15 0.15 0.15 0.14 0.15 0.15 0.16 0.16 0.15 0.15 0.16 0.16 0.17 0.18 0.19 0.20 0.21 0.22 0.22 0.24 0.25 0.25 0.26 0.26 0.27 0.27 0.26 0.25 0.24 0.25 0.26
0.22 0.24 0.23 0.21 0.19 0.21 0.24 0.20 0.21 0.24 0.25 0.27 0.27 0.28 0.25 0.25 0.25 0.26 0.27 0.27 0.25 0.27 0.28 0.29 0.28 0.27 0.24 0.24 0.23 0.23 0.24 0.23 0.18 0.20 0.20 0.14 0.13 0.14 0.19 0.14 0.10 0.11 0.09 0.08 0.08 0.10 0.11 0.13 0.12 0.12 0.13 0.13 0.13 0.14 0.14 0.14 0.15 0.15 0.15 0.15 0.15 0.16 0.16 0.16 0.15 0.15 0.16 0.17 0.17 0.18 0.20 0.21 0.22 0.23 0.24 0.24 0.24 0.25 0.26 0.27 0.27 0.26 0.25 0.24 0.25 0.26 0.27
0.20 0.24 0.23 0.18 0.18 0.21 0.20 0.23 0.28 0.29 0.30 0.28 0.28 0.28 0.28 0.28 0.25 0.25 0.28 0.28 0.29 0.29 0.28 0.27 0.25 0.26 0.25 0.29 0.26 0.21 0.21 0.22 0.18 0.19 0.19 0.15 0.16 0.14 0.12 0.11 0.10 0.12 0.13 0.10 0.10 0.13 0.12 0.12 0.13 0.13 0.14 0.14 0.14 0.14 0.14 0.15 0.15 0.15 0.15 0.15 0.16 0.16 0.16 0.16 0.15 0.16 0.16 0.17 0.18 0.20 0.21 0.22 0.22 0.23 0.23 0.24 0.24 0.25 0.26 0.26 0.26 0.25 0.25 0.26 0.26 0.27 0.26
0.24 0.23 0.21 0.21 0.22 0.23 0.24 0.27 0.27 0.25 0.27 0.28 0.27 0.28 0.27 0.25 0.25 0.26 0.28 0.30 0.29 0.28 0.30 0.27 0.26 0.25 0.21 0.24 0.21 0.20 0.17 0.21 0.15 0.14 0.17 0.14 0.12 0.10 0.10 0.09 0.09 0.08 0.11 0.13 0.12 0.12 0.13 0.14 0.14 0.14 0.14 0.14 0.14 0.14 0.15 0.16 0.16 0.15 0.15 0.15 0.16 0.16 0.17 0.16 0.16 0.16 0.16 0.18 0.20 0.21 0.22 0.23 0.23 0.24 0.24 0.24 0.24 0.24 0.25 0.25 0.25 0.25 0.26 0.27 0.26 0.24 0.22
0.22 0.22 0.24 0.23 0.23 0.25 0.27 0.28 0.27 0.24 0.26 0.26 0.26 0.25 0.27 0.26 0.26 0.28 0.31 0.29 0.30 0.30 0.31 0.30 0.31 0.24 0.22 0.21 0.17 0.18 0.17 0.19 0.16 0.16 0.14 0.12 0.13 0.13 0.12 0.09 0.10 0.09 0.10 0.13 0.13 0.14 0.14 0.15 0.15 0.14 0.14 0.14 0.14 0.14 0.15 0.16 0.16 0.15 0.15 0.16 0.16 0.17 0.17 0.17 0.16 0.16 0.17 0.19 0.21 0.22 0.22 0.23 0.23 0.24 0.24 0.24 0.24 0.24 0.24 0.24 0.25 0.26 0.26 0.25 0.24 0.23 0.23
0.26 0.23 0.23 0.26 0.23 0.23 0.24 0.23 0.23 0.24 0.25 0.25 0.25 0.26 0.26 0.26 0.28 0.28 0.32 0.31 0.30 0.29 0.27 0.23 0.23 0.22 0.20 0.18 0.17 0.14 0.15 0.19 0.16 0.14 0.13 0.12 0.14 0.12 0.10 0.09 0.10 0.13 0.13 0.14 0.15 0.15 0.15 0.15 0.15 0.14 0.14 0.14 0.14 0.15 0.16 0.17 0.16 0.15 0.15 0.15 0.16 0.18 0.18 0.17 0.16 0.16 0.17 0.20 0.21 0.22 0.22 0.22 0.24 0.24 0.25 0.24 0.24 0.23 0.23 0.24 0.25 0.23 0.23 0.23 0.24 0.24 0.24
0.21 0.20 0.22 0.25 0.27 0.27 0.27 0.28 0.29 0.27 0.26 0.27 0.26 0.28 0.29 0.28 0.31 0.31 0.34 0.32 0.30 0.26 0.23 0.25 0.23 0.20 0.18 0.16 0.17 0.18 0.20 0.17 0.15 0.15 0.12 0.14 0.15 0.12 0.11 0.12 0.13 0.14 0.15 0.14 0.14 0.15 0.16 0.16 0.16 0.15 0.15 0.15 0.15 0.16 0.17 0.17 0.16 0.15 0.15 0.15 0.16 0.17 0.17 0.16 0.15 0.16 0.19 0.20 0.21 0.21 0.22 0.23 0.23 0.23 0.23 0.23 0.23 0.23 0.22 0.21 0.21 0.22 0.23 0.23 0.24 0.24 0.24
Wind_Speed
11 10 10 9 8 7 6 6 6 6 6 7 7 8 8 9 8 8 10 10 9 9 10 10 10 10 9 9 10 10 10 11 12 12 13 13 13 14 14 14 15 16 16 17 18 18 17 18 19 19 19 19 20 21 22 23 22 22 22 22 24 23 22 24 26 25 25 24 24 24 23 24 25 25 24 23 22 22 22 22 24 25 24 22 21 23 27
11 11 10 9 9 8 7 7 7 7 7 7 8 8 9 9 10 10 11 10 8 9 9 9 9 9 9 9 10 11 11 12 12 13 14 14 14 14 15 15 16 17 17 17 19 19 18 18 18 19 20 20 20 21 22 22 22 22 22 23 24 23 22 24 25 26 26 26 25 25 25 25 26 26 24 23 23 23 24 23 22 23 23 22 21 24 30
12 12 11 10 9 8 7 7 7 7 7 8 8 8 8 9 10 11 13 12 10 9 9 9 9 9 9 10 11 11 12 13 13 13 14 14 14 15 15 16 17 17 17 17 18 19 18 18 19 19 20 20 20 21 22 22 21 22 22 23 24 23 23 24 23 23 24 25 25 26 27 27 27 27 25 24 23 23 23 23 22 22 24 24 22 26 33
13 12 12 11 9 8 7 7 6 7 7 7 8 8 8 8 8 10 11 13 12 11 10 10 10 10 10 11 12 13 12 12 13 13 14 15 15 16 16 17 17 18 19 19 19 19 19 19 20 21 21 21 20 21 22 21 21 22 22 23 23 23 24 23 21 22 23 24 25 26 27 27 28 29 28 26 24 23 23 23 22 23 26 27 27 30 34
15 14 13 12 11 10 9 8 7 7 7 8 9 9 9 8 8 8 9 10 12 12 12 12 11 11 11 11 12 13 13 13 13 14 14 15 16 16 17 18 18 19 20 20 20 21 21 19 20 21 21 21 21 20 21 20 20 21 22 22 22 23 25 24 23 24 25 27 28 28 27 27 30 31 30 28 26 24 24 25 25 26 26 28 32 33 34
16 16 15 14 14 13 12 10 9 8 8 8 8 9 9 9 9 9 9 9 10 11 12 13 13 13 12 11 12 13 14 14 14 15 15 16 17 17 17 19 20 20 21 20 21 23 22 20 21 21 20 21 21 20 20 20 20 21 22 22 22 24 25 25 25 27 28 29 29 29 28 29 30 31 31 31 28 25 25 28 29 28 27 31 35 36 37
17 17 17 16 15 14 13 11 10 9 8 8 8 9 10 9 9 10 10 10 10 10 11 12 13 13 13 13 13 14 15 15 15 15 16 16 18 19 19 20 22 21 21 21 22 22 22 22 22 21 21 22 22 21 21 20 21 21 22 23 24 24 26 27 27 29 31 29 28 29 29 30 33 32 31 31 31 29 29 31 31 30 31 35 37 39 40
17 17 18 17 16 15 14 13 11 10 9 9 9 10 9 9 9 9 10 11 11 11 11 12 12 14 14 14 14 15 15 15 15 16 17 18 19 20 20 21 23 22 21 21 21 21 21 21 22 21 22 22 22 21 21 21 22 23 23 24 25 25 27 28 29 32 33 30 29 30 30 32 35 33 31 32 33 33 32 33 32 31 33 36 37 39 41
17 17 17 17 17 16 15 14 13 11 10 9 10 10 10 9 9 9 10 11 12 12 12 13 13 14 16 15 15 16 16 16 16 17 18 18 19 20 21 22 23 21 20 21 20 20 20 20 21 22 21 21 21 22 22 23 24 25 24 25 25 26 28 30 31 33 34 32 32 35 35 35 34 31 32 34 34 33 33 33 32 32 34 37 38 39 42
16 17 17 17 17 16 15 15 14 13 10 10 10 10 10 10 10 10 10 11 12 13 13 14 14 14 15 15 15 16 16 16 17 17 18 19 19 20 21 22 22 21 20 21 21 21 22 22 22 22 22 22 22 23 24 24 24 25 25 26 26 26 28 31 31 32 34 35 36 38 38 34 30 30 33 35 34 33 34 35 35 34 34 36 39 42 45
16 16 16 17 17 16 16 16 16 14 12 11 11 10 9 10 10 11 11 11 13 14 14 15 15 14 15 15 16 16 16 17 18 18 18 19 20 20 21 21 21 21 21 22 23 23 23 23 23 22 22 23 23 23 24 25 24 24 25 27 27 27 28 30 30 30 34 38 38 38 36 31 30 33 36 35 33 33 36 39 39 37 36 39 43 46 47
15 15 16 16 17 16 16 16 16 15 14 12 11 11 11 10 10 11 12 12 13 14 14 14 15 15 15 16 16 17 17 18 18 18 18 19 19 20 20 21 21 21 22 23 23 23 23 22 22 21 21 22 23 23 24 25 25 25 26 27 28 29 29 30 30 30 34 37 36 35 33 33 36 39 38 35 33 34 37 40 40 39 41 44 46 46 46
14 15 15 16 17 17 17 17 16 16 15 13 12 12 12 12 12 12 13 13 13 14 14 14 15 15 16 16 17 17 18 18 18 18 18 18 19 19 20 20 21 22 23 23 23 23 22 22 21 21 22 22 23 24 24 25 25 26 26 27 28 29 30 30 31 31 32 34 33 32 36 40 42 40 37 36 35 36 39 42 42 41 42 45 46 46 46
14 15 15 16 17 17 17 17 16 16 15 14 13 13 13 13 13 13 13 13 13 14 14 14 15 15 16 17 17 17 17 17 17 18 18 18 19 20 20 21 21 22 23 23 23 22 22 23 24 24 24 24 25 26 26 26 26 26 27 27 28 29 30 31 31 31 31 32 34 35 39 42 40 37 36 37 37 38 39 41 42 42 42 43 45 46 47
14 15 16 16 16 17 16 17 16 16 15 15 14 14 14 15 14 14 14 13 13 14 15 15 15 15 16 17 17 17 17 17 17 18 19 19 20 20 21 21 21 22 23 23 22 22 23 24 25 26 27 27 27 27 28 28 28 28 28 29 29 29 30 31 31 31 32 34 35 36 37 38 38 38 37 38 40 40 40 40 41 42 43 44 46 48 49
14 15 16 16 16 16 16 16 16 16 15 15 14 15 16 16 15 15 15 14 13 14 16 16 16 16 16 17 17 17 18 18 18 18 19 19 20 21 21 21 21 22 23 23 22 23 24 24 25 26 27 27 28 28 29 30 30 30 30 30 31 32 32 32 31 33 34 34 34 34 35 36 40 41 41 42 44 44 42 41 41 43 46 49 50 52 54
13 14 15 16 16 16 16 16 16 16 16 16 15 15 17 17 16 15 15 15 15 15 15 16 16 16 17 17 18 18 18 19 19 19 19 19 20 22 22 22 22 22 23 24 23 24 25 25 26 27 27 27 28 29 30 31 31 32 32 31 32 32 32 32 32 33 35 34 34 35 36 37 41 44 44 46 49 47 43 41 42 46 52 54 53 54 55
13 13 14 15 16 16 17 17 17 17 17 16 15 16 17 18 17 16 15 15 15 14 15 16 16 17 17 17 18 18 19 19 19 19 19 19 20 22 23 22 23 23 23 24 24 25 26 26 26 28 28 28 28 29 30 31 32 33 33 33 33 32 31 32 32 34 36 35 35 37 36 37 42 43 45 50 51 46 42 41 45 51 55 54 54 55 56
13 13 14 15 16 17 17 17 18 18 17 17 16 16 17 19 18 16 15 15 15 14 15 16 17 17 17 17 18 18 19 19 20 20 20 20 22 23 23 22 23 24 24 25 25 26 27 27 27 28 29 29 30 30 31 32 32 33 34 34 34 33 33 33 33 34 35 35 37 38 37 39 44 46 48 52 49 42 41 46 50 54 55 54 55 58 59
12 13 14 15 16 17 18 18 19 19 19 18 17 16 18 19 19 17 16 14 14 14 15 17 17 17 18 18 18 19 19 20 20 21 21 21 23 24 23 22 24 25 25 26 26 26 27 28 29 29 29 30 31 31 32 33 33 33 34 34 34 33 34 34 34 34 36 37 38 38 37 41 49 50 49 49 46 42 45 50 53 55 56 57 59 60 62
12 13 14 15 16 17 18 19 20 20 20 19 18 17 18 19 19 18 16 14 14 14 15 16 17 17 18 18 19 19 20 21 21 21 21 22 23 24 23 23 25 25 25 26 27 27 28 29 30 29 30 31 31 31 33 35 35 34 32 33 34 33 33 35 36 36 37 38 39 38 39 44 49 48 47 48 48 48 51 53 55 58 59 60 62 64 66
11 13 14 15 16 17 18 19 20 20 20 20 19 18 17 18 18 18 17 16 15 15 14 15 16 17 18 18 19 19 20 21 21 22 22 23 23 23 23 24 25 25 26 27 28 28 29 30 30 31 32 32 32 33 34 34 36 36 34 34 34 33 34 37 38 38 39 40 40 41 44 47 48 48 49 52 54 55 56 58 60 61 61 63 65 67 68
11 12 14 15 16 17 18 20 20 21 21 21 20 18 17 17 17 17 17 16 15 15 14 15 16 17 18 18 19 20 20 21 22 22 23 23 23 24 24 25 25 26 27 27 28 29 30 30 30 31 32 32 32 34 34 34 35 36 36 35 34 35 38 39 39 41 43 43 43 45 48 51 52 52 54 57 58 59 60 62 63 63 64 66 67 67 69
11 12 14 15 16 17 19 20 20 21 22 21 20 19 17 17 17 17 17 16 15 15 15 16 17 17 18 19 20 20 21 22 23 23 23 24 24 25 25 26 26 27 28 28 29 29 30 31 31 31 32 32 32 33 34 35 35 36 37 38 37 39 42 42 42 44 45 44 46 50 53 55 56 56 58 60 61 61 62 64 64 65 67 68 68 68 68
11 12 13 15 16 18 19 19 20 21 22 22 20 19 17 17 18 18 17 17 16 16 16 17 18 18 18 19 20 21 21 23 24 25 25 25 25 25 26 27 28 28 29 30 30 30 30 31 31 31 32 32 33 33 34 35 36 37 38 39 39 41 43 43 43 46 46 46 50 54 56 57 57 58 60 62 63 65 66 66 67 68 69 69 68 67 65
11 12 14 15 16 18 19 19 20 21 21 21 20 19 18 19 20 19 18 18 18 17 17 18 18 18 19 20 20 21 22 24 26 26 25 26 26 26 27 28 29 29 30 31 31 31 31 31 31 31 32 33 33 34 35 36 38 38 38 39 41 43 43 43 45 47 48 49 54 58 59 60 60 61 64 65 66 68 69 69 69 70 70 68 66 64 61
11 12 14 16 17 18 19 19 20 20 20 20 20 20 19 20 20 20 19 19 19 18 18 18 18 19 20 20 21 22 24 25 26 27 26 27 27 27 28 29 30 30 30 31 31 31 31 31 31 31 32 33 34 35 35 37 38 38 38 40 43 43 43 45 47 49 50 52 56 59 59 60 62 64 66 67 67 68 68 69 70 69 67 64 62 60 59
11 13 14 16 17 18 19 19 20 20 20 19 20 20 20 20 21 21 21 21 20 19 19 18 18 19 20 20 22 23 24 25 27 27 27 27 28 28 29 30 31 31 31 31 31 31 31 31 32 32 33 34 35 36 36 37 38 38 39 41 43 44 45 47 48 50 52 55 58 59 60 61 64 67 68 68 68 68 68 69 68 65 62 59 58 57 57
12 13 15 16 17 18 19 20 21 20 20 20 19 19 19 20 22 22 22 22 21 20 19 19 19 20 21 21 22 24 24 26 27 28 27 28 29 29 30 31 31 31 31 31 31 31 31 32 32 33 33 34 36 37 38 38 38 38 40 43 44 45 47 48 50 52 54 56 59 61 62 64 66 68 68 68 68 67 67 66 63 59 57 56 55 54 55
12 14 15 16 17 18 19 21 21 20 20 20 20 20 20 20 22 24 24 23 22 21 20 20 20 21 21 22 23 24 25 27 28 28 28 29 29 29 30 31 32 32 32 31 31 31 32 33 33 33 33 34 36 37 38 39 38 39 42 44 46 47 49 50 52 54 56 58 60 63 65 67 67 68 68 68 67 66 64 61 57 55 54 54 53 53 53
13 14 15 16 17 18 20 21 21 21 21 21 21 20 20 20 23 25 25 24 23 22 21 21 21 21 21 22 22 24 27 28 28 29 29 30 30 30 31 32 32 32 31 31 31 32 32 32 33 33 34 35 36 37 39 39 39 40 44 47 48 50 52 53 54 56 57 60 63 65 67 68 69 68 68 67 66 64 60 57 55 54 54 53 52 52 52
13 14 16 16 17 18 20 20 21 21 21 21 21 20 20 22 24 25 25 24 23 22 21 21 21 22 22 22 23 25 28 29 29 29 30 30 30 31 31 32 32 32 31 31 32 32 32 32 33 35 36 36 36 37 39 40 40 43 48 50 51 52 55 56 57 58 60 62 66 68 69 69 68 68 67 65 64 61 57 55 55 55 53 53 52 51 51
14 15 16 16 17 19 20 20 21 21 21 21 21 21 22 23 24 24 24 23 23 22 22 22 22 22 22 23 24 26 29 30 29 30 31 31 31 32 32 32 32 32 32 31 32 33 33 33 34 37 37 37 37 38 39 40 42 46 49 51 52 54 56 58 60 61 63 66 68 69 69 69 68 66 65 63 61 58 55 54 54 54 53 52 51 51 51
14 15 16 17 18 19 20 21 21 21 21 21 22 22 23 24 25 25 24 23 22 22 22 22 22 22 23 24 24 26 29 30 30 31 32 32 32 33 33 32 32 32 32 32 32 33 34 34 36 38 38 38 39 39 40 42 46 49 50 52 54 56 58 60 63 65 67 69 69 68 68 68 68 66 63 61 58 56 54 53 53 53 53 52 51 52 52
15 16 17 18 18 19 20 21 22 22 22 22 22 22 24 24 25 25 24 23 22 22 22 23 23 23 24 25 25 27 30 31 30 31 33 32 32 33 32 32 32 32 32 33 33 33 34 36 38 39 39 39 40 40 42 45 49 51 52 54 57 59 61 63 66 69 70 70 69 68 68 68 67 64 61 58 56 55 54 53 53 52 52 52 52 52 52
16 17 18 18 19 19 20 22 23 23 23 23 23 23 24 24 24 24 24 23 23 22 22 23 23 24 25 25 26 29 32 31 31 32 33 32 32 33 32 32 33 33 33 34 34 34 35 37 38 39 39 39 40 41 43 47 50 52 54 57 59 60 63 66 69 71 71 70 69 68 68 68 66 62 59 57 55 53 53 53 53 52 53 53 54 53 52
17 18 18 19 19 20 21 23 24 24 24 24 24 24 24 24 23 23 23 24 23 23 23 23 23 24 25 26 27 30 32 31 32 33 32 32 33 33 33 33 34 34 35 34 34 35 37 38 39 40 40 39 40 43 46 48 50 53 56 58 60 62 65 68 70 71 71 70 69 68 68 67 65 62 59 57 55 53 52 53 53 52 53 54 54 53 53
18 18 19 19 20 21 22 23 25 26 26 25 24 24 24 23 23 23 23 24 24 24 24 24 24 25 26 26 28 31 32 32 33 33 32 32 33 33 33 34 34 35 35 35 35 36 39 39 39 40 40 39 41 45 48 50 52 55 57 60 63 65 68 69 70 70 70 69 68 68 67 66 64 62 59 57 55 53 52 52 53 53 54 54 54 54 53
18 19 19 20 20 21 23 24 26 26 26 25 24 23 23 24 23 23 24 24 24 25 25 25 25 26 28 28 29 31 32 32 33 32 32 33 34 33 33 34 35 35 36 35 36 38 40 39 39 40 41 41 43 47 51 53 55 57 61 64 67 68 69 70 70 69 68 68 68 67 65 62 61 60 58 56 55 54 53 54 54 55 55 55 55 54 53
19 19 20 20 21 22 24 25 26 26 25 25 24 23 23 23 23 23 24 24 24 25 26 26 26 27 28 29 30 31 32 33 32 32 32 33 33 33 34 34 35 36 36 36 37 40 40 40 40 41 41 43 46 50 53 55 58 61 65 68 69 70 70 71 71 69 69 69 69 66 63 60 59 57 56 55 55 55 55 55 56 56 56 55 55 53 52
19 20 20 21 22 23 24 25 25 25 24 24 24 23 23 23 23 24 24 25 25 26 27 27 28 28 30 30 31 31 32 33 33 32 32 33 33 33 34 34 35 35 35 36 39 40 40 40 41 41 42 44 48 52 55 59 62 66 68 70 70 71 72 72 71 71 70 70 68 65 63 61 58 56 55 55 55 56 56 56 57 57 56 55 53 52 50
20 20 21 21 22 23 24 24 25 25 24 24 23 23 23 23 24 25 25 25 26 27 28 28 29 30 31 31 31 32 32 33 32 32 32 33 33 34 34 34 35 35 36 38 40 40 39 41 42 42 43 47 51 55 59 63 66 68 69 70 71 72 73 73 72 72 71 69 67 64 62 60 58 56 56 56 56 56 55 56 56 56 55 53 52 50 49
20 20 21 22 22 23 24 24 24 24 23 23 23 23 24 24 25 25 26 26 26 27 28 29 30 31 31 32 32 32 32 32 32 32 32 33 34 34 34 34 35 36 37 39 39 39 40 41 42 42 45 50 54 59 63 66 67 68 70 71 72 72 73 73 73 72 71 69 66 63 61 59 58 57 57 56 56 56 56 56 56 54 53 51 49 48 47
20 21 21 22 22 23 23 23 24 24 23 23 24 24 24 25 26 26 26 27 27 28 29 29 30 31 31 32 33 32 31 31 32 32 32 33 34 33 34 35 36 37 39 39 39 39 40 41 41 45 50 55 59 63 65 66 67 69 70 72 73 73 74 74 73 72 71 69 66 63 61 59 59 58 57 55 55 55 56 56 55 53 51 49 48 47 46
21 21 22 22 23 23 23 23 23 24 23 24 24 24 25 26 26 27 27 28 28 29 29 30 31 31 32 33 32 31 31 32 32 32 32 33 34 33 34 36 37 38 39 39 39 41 41 42 45 50 55 59 62 65 66 67 68 69 71 72 74 74 74 74 73 71 70 68 65 62 61 60 59 57 56 55 55 55 54 54 52 51 49 48 47 46 46
20 21 21 22 23 23 23 23 23 24 24 24 25 25 25 26 27 27 27 28 29 29 30 31 31 31 32 32 31 31 31 32 32 31 32 33 33 34 36 37 37 38 39 40 40 42 43 45 50 54 58 61 64 65 66 68 69 70 71 72 73 74 74 73 73 71 69 67 64 62 61 59 57 56 55 55 54 54 53 52 50 49 48 48 47 47 46
21 21 22 22 23 23 23 23 24 24 25 25 25 26 26 27 27 28 28 28 29 29 30 31 31 31 31 31 30 31 31 31 31 32 32 33 34 35 36 36 36 37 39 41 42 43 45 49 54 57 60 63 65 66 67 68 70 71 72 72 73 74 74 73 73 71 69 66 64 62 60 58 57 55 55 54 54 53 52 50 49 49 49 48 48 47 47
21 22 22 22 22 23 24 24 24 25 25 25 26 26 27 27 28 28 28 28 29 29 30 31 31 30 30 30 30 31 31 31 31 32 33 34 35 36 36 37 38 39 39 40 43 46 49 53 57 59 61 63 65 66 67 69 70 72 73 73 73 74 74 73 72 71 68 65 63 61 59 57 56 55 54 54 53 52 51 50 50 50 49 48 48 48 49
21 21 22 22 23 23 24 24 25 26 25 26 26 27 27 28 28 28 28 28 29 29 30 30 30 30 30 30 30 31 31 31 32 33 34 34 35 35 36 37 39 41 41 42 45 49 52 55 58 61 62 64 65 66 68 69 71 73 73 73 73 74 74 73 72 70 67 64 62 59 58 56 56 55 54 53 52 52 51 51 50 49 48 48 50 52 53
21 22 22 23 23 24 24 25 26 26 26 26 27 27 28 28 28 28 28 28 29 29 29 29 30 30 30 30 30 30 31 31 32 33 34 34 34 36 37 38 40 42 44 46 49 52 55 57 59 61 63 65 66 67 68 70 72 73 73 73 74 74 73 73 72 69 66 63 61 59 57 56 55 54 53 53 53 53 52 51 49 48 49 51 53 53 52
22 22 23 24 24 24 25 26 26 27 27 27 28 28 28 28 28 28 28 29 29 29 29 29 30 30 30 30 30 30 31 32 32 33 34 34 35 36 38 40 42 44 47 50 52 54 55 57 59 61 63 65 67 68 69 71 72 73 74 74 74 73 73 72 71 68 65 62 60 58 56 55 54 53 53 53 53 52 50 49 49 51 53 53 52 50 49
23 23 24 25 25 25 26 27 27 27 28 28 29 29 29 28 28 28 28 29 28 28 28 29 29 29 30 30 31 31 31 32 33 34 34 35 35 36 39 42 45 47 49 52 54 55 56 58 60 62 63 65 67 69 70 71 72 74 75 75 74 74 73 72 70 67 64 61 59 57 55 54 53 54 54 52 51 50 49 50 51 53 53 51 49 48 47
Wind_Direction
46 47 48 52 55 56 58 58 58 57 52 45 41 38 31 26 22 13 9 11 15 23 21 12 13 18 16 14 14 11 7 4 360 358 358 355 352 353 353 352 352 351 349 346 345 346 343 341 344 343 341 341 338 337 338 337 336 336 337 339 340 338 335 334 332 332 334 335 334 335 337 338 336 332 333 333 332 331 327 323 323 324 321 321 320 314 319
42 43 44 47 52 55 58 60 59 56 52 45 41 41 36 31 27 21 15 15 20 24 22 20 20 17 15 16 13 9 7 5 1 358 359 356 352 352 351 351 350 348 347 344 342 344 344 342 342 341 338 337 337 336 338 338 337 338 338 337 339 339 337 336 336 336 337 338 338 338 339 340 336 334 334 333 332 332 329 324 324 323 318 319 319 314 317
41 41 41 43 47 52 57 59 58 56 51 43 40 41 35 30 29 28 27 29 32 30 26 26 25 18 16 16 10 7 6 4 0 357 356 355 352 350 349 349 347 344 344 342 340 342 342 339 339 338 336 336 335 336 337 337 338 339 337 336 338 338 336 337 338 338 338 337 337 336 336 336 335 334 334 332 330 329 326 324 322 319 318 319 316 311 314
42 42 42 42 44 48 52 53 53 51 44 36 36 38 32 26 27 26 28 33 36 35 29 26 23 16 13 12 7 4 4 360 355 354 353 353 351 348 346 345 343 343 343 341 340 341 340 338 338 337 335 335 334 335 337 337 337 338 337 336 337 337 336 335 333 332 333 331 330 331 332 331 330 329 328 328 327 325 323 322 317 315 318 318 314 312 313
44 45 45 45 48 51 54 55 54 53 48 40 41 40 34 31 29 22 22 27 29 29 24 20 17 11 8 7 3 2 2 357 353 352 351 350 349 346 344 346 344 342 342 341 340 340 338 338 339 336 333 333 333 334 337 337 337 337 337 336 337 337 335 334 332 328 328 328 326 327 328 326 324 324 323 323 323 321 318 315 312 315 318 315 314 316 314
48 49 50 50 52 53 55 57 57 56 50 43 42 37 30 32 32 24 23 21 17 18 17 16 18 15 10 6 2 360 359 356 353 350 347 347 348 344 343 345 345 341 339 338 337 338 338 338 338 336 334 335 336 335 336 337 337 337 336 336 338 336 333 335 334 328 327 327 324 323 324 324 323 322 320 318 318 316 312 309 309 312 310 307 312 315 313
52 51 51 51 52 52 52 53 54 52 45 40 43 41 34 37 34 24 24 24 20 18 13 11 16 14 7 5 1 358 358 356 351 347 345 345 346 345 342 341 341 340 338 337 337 338 337 336 336 337 337 336 336 337 336 336 336 336 336 335 337 336 333 333 332 327 327 327 323 321 323 324 323 321 319 317 315 312 310 309 309 308 305 305 309 310 310
53 52 51 50 50 50 48 48 48 49 46 41 42 40 33 32 31 27 30 29 21 17 11 8 11 8 3 1 357 354 356 355 349 347 347 345 344 344 342 339 338 337 337 338 339 339 338 335 333 337 339 337 337 338 337 336 335 335 336 336 335 334 333 333 331 327 328 329 326 324 324 323 322 321 319 318 316 315 314 313 312 310 307 308 309 308 310
53 51 49 47 47 47 45 43 42 42 43 41 39 37 34 36 38 37 35 23 12 11 9 6 6 3 360 358 354 352 354 352 347 347 348 346 343 342 340 337 336 336 338 339 340 339 338 334 331 333 336 336 337 338 337 338 337 335 336 335 334 332 330 331 331 327 327 330 330 327 326 324 323 322 321 320 318 317 317 316 315 312 310 310 311 310 312
51 49 47 45 45 45 43 41 38 37 40 42 41 39 39 40 38 32 27 17 8 6 4 2 2 359 356 356 354 352 352 349 346 346 345 346 345 342 339 338 338 339 340 340 340 339 337 334 332 333 332 331 332 332 332 334 334 334 335 333 332 332 330 329 329 326 325 329 330 327 327 327 327 327 325 321 318 316 317 317 316 313 312 313 312 312 313
50 47 46 44 43 43 42 40 38 37 40 43 44 41 36 33 30 24 20 14 6 2 1 1 0 356 354 355 353 351 351 350 348 346 344 343 343 342 340 341 342 341 341 342 342 340 339 339 337 335 333 331 330 330 330 330 329 328 330 331 331 331 329 328 327 323 323 327 328 327 327 328 328 328 325 320 317 317 317 317 317 316 315 313 312 312 314
47 45 44 43 42 41 41 40 39 39 41 42 43 40 30 23 21 18 15 10 3 2 2 359 356 355 354 353 351 351 352 350 347 347 345 343 343 343 343 344 344 344 344 344 343 341 341 342 340 338 336 333 331 330 329 329 328 326 326 328 330 330 328 326 325 323 323 326 329 328 327 326 326 326 324 322 320 319 317 317 318 317 317 316 315 315 316
44 42 42 41 41 41 40 40 40 40 40 39 38 34 27 20 19 18 17 12 3 360 1 358 354 354 354 352 352 352 352 350 348 347 346 345 345 345 346 346 346 346 346 345 343 343 342 341 341 341 339 336 334 332 329 328 328 327 326 327 328 329 328 327 326 324 323 326 327 324 322 323 325 325 325 326 325 321 320 319 319 321 321 320 321 321 321
42 41 41 41 41 41 40 40 40 38 37 36 34 29 24 18 15 13 12 11 2 357 0 359 355 355 355 353 352 352 351 353 351 348 348 349 348 348 349 349 348 348 348 346 344 345 344 342 342 341 339 339 337 335 333 331 329 329 329 327 327 328 328 328 326 325 324 324 322 320 320 323 327 327 326 327 324 321 320 318 319 324 324 322 322 323 322
42 42 42 41 41 40 39 38 37 35 33 32 30 27 23 18 14 10 10 12 6 359 358 358 356 357 357 355 354 353 352 354 353 351 352 352 351 351 352 351 350 349 349 347 345 344 344 343 343 340 339 339 337 334 335 335 333 333 332 330 329 328 327 328 327 325 326 324 321 323 323 324 327 327 325 323 320 319 318 315 316 322 324 322 322 321 320
43 42 41 40 38 37 35 34 33 31 28 26 24 23 20 15 11 8 7 9 6 360 357 356 357 359 359 358 358 357 356 356 356 356 355 354 352 353 352 351 350 349 347 346 344 343 343 342 341 338 337 337 335 332 333 334 334 335 335 333 331 328 327 328 326 323 325 323 321 323 323 323 327 327 325 324 322 320 319 315 314 320 323 322 321 320 319
43 41 39 37 35 33 31 30 29 27 25 21 19 17 15 11 8 5 4 5 4 1 358 357 357 359 0 359 358 359 357 356 356 356 355 353 352 351 351 350 348 347 346 345 343 343 342 340 339 337 335 335 335 333 332 333 332 333 334 333 331 329 328 327 324 322 323 321 319 321 321 324 328 327 326 326 324 322 320 315 315 321 323 321 321 320 319
41 37 35 33 31 29 27 25 23 22 20 17 15 13 11 8 6 3 3 5 5 3 360 359 360 1 1 358 357 357 356 355 354 352 352 353 352 350 348 347 346 345 344 344 343 342 341 339 338 336 335 336 336 334 333 333 331 331 331 331 330 329 328 326 324 323 323 321 320 320 321 325 328 326 327 327 324 321 320 316 316 320 321 320 320 319 318
37 33 30 28 27 25 22 20 18 16 14 12 10 8 7 5 3 1 360 1 4 5 1 359 0 1 359 357 356 356 355 353 351 349 349 349 348 346 345 344 344 343 342 342 341 341 340 338 338 337 334 334 335 334 333 332 331 330 330 330 329 329 328 326 325 325 324 323 322 320 320 326 328 325 325 328 326 322 320 317 317 318 318 318 318 317 317
33 30 26 23 22 21 19 17 14 12 10 8 7 6 5 3 2 2 1 2 7 9 3 358 359 360 357 356 355 353 352 351 349 348 347 344 342 343 344 343 343 342 342 342 341 341 339 338 337 337 334 333 334 334 332 331 330 330 329 328 329 329 327 326 326 326 325 324 324 322 321 326 328 326 326 328 327 322 319 317 317 317 317 317 316 316 316
29 26 22 19 18 16 15 13 11 9 7 4 3 3 2 1 2 4 5 4 4 4 359 356 357 358 357 356 354 352 350 350 348 346 344 340 341 344 343 341 341 341 341 341 340 339 338 337 336 336 334 333 333 333 331 330 331 332 331 330 329 330 328 326 327 328 326 324 324 325 323 323 326 327 327 327 325 321 319 318 318 318 317 317 317 317 317
25 21 18 15 13 12 10 9 7 6 5 2 0 360 0 0 2 5 6 5 2 1 357 354 355 357 355 354 353 350 348 348 346 344 341 339 341 343 341 339 339 340 339 339 338 337 337 336 335 334 333 333 332 331 331 330 330 332 334 332 330 331 330 327 325 326 325 322 322 323 322 322 324 325 324 324 322 321 320 319 318 318 318 318 317 317 317
20 17 14 11 9 7 5 5 5 4 3 1 359 358 360 360 359 359 1 2 2 360 355 351 350 351 350 350 349 347 346 345 343 342 341 339 338 339 339 339 338 337 337 337 336 335 335 335 334 333 333 332 331 331 331 330 329 330 331 330 329 331 331 328 324 325 324 323 323 324 324 323 323 321 321 321 321 320 320 319 319 318 318 318 318 317 316
13 11 9 7 5 2 1 1 3 3 1 359 357 358 358 358 356 354 353 353 352 350 347 344 343 343 343 344 344 344 343 342 341 339 338 337 337 337 337 337 336 336 336 335 334 334 334 333 333 333 333 332 332 331 330 329 330 331 330 328 328 331 331 328 325 325 324 323 325 325 324 323 322 321 321 321 321 320 320 319 319 319 319 318 318 317 317
8 7 5 3 1 0 360 360 1 1 360 359 358 358 357 355 352 349 348 347 344 343 342 339 337 338 339 339 340 341 341 340 339 337 336 335 335 335 334 335 334 334 333 333 333 333 333 332 332 333 332 331 332 332 330 329 330 332 331 328 327 329 330 328 326 326 324 323 323 324 322 322 322 322 322 322 322 321 321 320 320 320 319 319 318 318 318
3 2 1 360 359 359 359 359 358 358 359 359 360 358 356 354 351 347 345 344 341 340 340 337 334 335 336 336 337 338 338 338 337 336 335 334 333 332 333 333 333 333 332 332 332 332 332 331 332 332 331 332 332 332 331 330 330 330 330 329 328 329 329 328 326 325 324 323 324 325 323 323 324 324 323 323 323 322 322 321 321 320 320 320 320 320 320
0 359 358 358 357 357 357 357 355 355 356 357 359 358 356 354 352 349 346 342 339 337 337 335 332 332 333 333 334 335 335 336 336 336 335 334 332 332 332 332 332 332 332 332 332 333 332 332 332 331 330 331 331 331 330 330 330 330 330 331 331 330 329 328 327 327 327 327 328 328 326 325 326 326 325 324 324 323 322 322 322 321 321 321 321 321 322
356 355 354 355 355 355 355 354 353 352 352 352 353 355 355 354 353 350 346 343 339 335 334 333 333 332 332 332 332 333 334 334 335 335 334 334 333 332 332 332 331 332 332 332 332 333 332 332 332 331 331 331 332 332 331 330 331 332 331 331 332 331 330 330 330 329 328 328 328 327 326 325 325 325 325 324 324 323 322 322 322 322 322 322 323 323 324
351 351 351 352 353 353 353 352 351 349 348 347 346 346 348 350 351 348 345 342 340 337 335 334 333 331 331 330 331 332 334 334 334 334 334 334 334 333 332 332 331 331 331 331 331 332 332 331 331 331 331 332 332 332 332 332 332 332 331 331 332 331 330 330 330 328 327 327 327 326 326 325 325 325 325 325 325 324 323 323 323 323 324 325 325 325 325
346 347 348 349 350 351 351 351 349 347 345 344 343 341 341 342 345 345 343 340 337 334 333 333 331 330 330 330 331 333 334 333 334 333 333 333 334 333 333 333 332 331 331 331 332 332 332 332 332 332 333 333 332 332 333 333 332 332 332 332 331 330 329 329 329 328 327 327 327 326 325 325 325 325 325 325 326 326 325 325 326 326 326 326 326 326 326
342 343 345 347 347 348 348 348 348 346 344 343 342 341 338 336 337 340 339 337 335 333 332 332 332 330 330 330 330 332 333 334 333 333 333 333 333 333 333 333 332 332 332 332 332 333 333 332 333 334 334 334 333 333 333 333 332 332 333 332 330 330 329 329 329 328 327 327 326 326 325 325 326 326 326 327 328 327 327 327 326 326 326 326 326 326 326
339 341 343 343 344 345 345 345 346 346 346 346 346 344 340 336 335 336 336 335 334 332 331 332 332 330 330 330 330 331 333 334 333 333 333 333 333 333 333 333 333 333 333 333 333 333 333 333 333 333 334 335 334 333 334 334 333 332 332 331 330 330 330 330 329 329 328 328 328 327 326 327 328 328 328 328 328 328 327 327 326 326 326 326 326 326 326
336 338 339 339 340 341 341 342 342 344 345 347 348 346 344 341 339 337 335 334 334 333 332 332 331 330 330 330 330 332 334 334 333 333 333 333 334 334 334 334 334 333 334 335 334 334 334 335 334 334 335 336 335 335 335 335 333 332 332 332 331 331 331 330 330 329 329 329 329 328 327 327 328 328 327 327 328 328 327 327 326 326 327 327 327 327 327
333 334 335 335 335 337 338 338 339 339 341 342 342 342 341 341 341 339 336 333 333 334 334 334 332 329 329 329 329 332 335 334 332 333 333 333 334 335 334 334 334 334 335 336 335 335 335 335 335 335 336 336 336 336 336 335 334 333 333 332 332 332 331 331 331 330 330 329 329 328 327 327 327 328 327 327 328 328 327 327 327 327 327 328 328 329 329
330 331 332 331 331 333 335 336 336 336 337 338 338 338 338 338 339 341 339 336 334 334 334 334 333 330 330 329 329 331 334 334 332 332 332 332 334 335 335 334 335 335 335 336 336 335 335 336 336 336 337 337 337 337 336 334 334 334 333 333 333 333 333 332 332 331 330 330 329 329 328 328 328 328 328 328 328 328 328 328 328 328 327 328 329 329 329
327 328 328 328 328 330 332 334 335 335 335 335 334 334 334 335 336 339 341 341 339 336 334 333 332 332 331 329 328 331 333 333 332 332 332 332 333 335 335 335 335 336 336 336 336 335 336 337 337 337 337 338 338 337 336 335 335 335 334 334 334 334 333 332 332 331 330 330 330 329 329 329 329 329 328 328 328 328 328 328 328 328 327 328 328 329 329
324 325 325 325 326 328 330 332 333 334 333 331 330 330 331 332 332 334 337 339 341 340 337 334 332 332 331 329 328 331 332 332 332 333 333 334 334 334 335 336 336 336 336 336 336 336 337 337 337 338 338 339 339 338 337 337 336 335 335 334 334 334 333 332 332 331 330 330 331 331 330 330 330 329 329 329 328 328 328 328 328 328 327 327 328 328 328
321 323 323 324 325 327 328 329 330 331 330 330 329 329 330 330 330 331 333 335 336 337 337 335 333 332 332 330 329 331 332 332 332 333 334 335 335 335 336 337 337 337 337 337 337 337 338 338 338 339 338 338 338 339 339 337 336 336 336 335 334 334 333 333 333 332 332 332 332 332 331 331 330 330 329 329 328 328 328 328 327 327 327 327 327 327 327
319 320 322 324 325 325 325 326 328 329 329 330 330 330 330 330 330 329 330 331 332 333 334 334 333 332 332 330 330 332 333 332 332 333 334 335 336 336 336 337 337 338 337 337 338 339 339 338 338 339 338 337 337 338 338 337 337 336 336 335 335 334 334 334 334 333 332 332 331 331 331 330 329 329 329 328 328 328 328 327 327 326 326 326 326 326 326
319 320 321 322 324 324 324 325 327 328 328 329 330 330 330 330 330 329 328 330 331 331 332 332 331 331 332 331 329 331 333 333 332 332 334 334 335 335 336 336 337 338 337 336 338 339 339 337 337 339 339 338 337 338 338 337 336 336 336 336 335 335 335 334 334 333 333 332 331 330 330 329 328 328 328 328 327 327 327 327 326 326 326 325 325 325 326
318 319 319 320 321 322 323 324 326 327 328 329 329 329 329 329 329 329 329 330 329 329 330 331 331 330 331 331 329 329 331 332 332 332 333 334 335 336 336 336 337 338 337 336 337 339 338 337 338 338 338 337 338 338 337 337 336 336 336 336 336 336 335 335 334 334 333 333 332 331 330 329 328 328 328 327 327 326 326 326 326 326 325 325 326 326 326
317 318 318 319 321 322 323 324 326 327 327 328 328 328 327 327 328 328 329 329 328 328 329 330 330 329 330 330 329 329 330 332 333 333 333 334 335 336 336 337 338 337 336 336 337 338 337 337 338 338 337 337 338 337 337 337 336 336 336 336 336 336 336 336 335 335 334 334 332 332 331 330 329 329 328 327 326 326 326 326 326 326 326 327 327 327 327
317 318 318 318 320 322 323 324 326 327 327 327 327 327 326 326 327 326 327 327 328 327 328 329 329 329 329 330 330 329 330 332 333 334 333 334 335 336 337 337 337 336 335 336 338 338 337 338 338 337 337 337 337 337 336 336 336 336 336 337 337 337 336 336 335 335 335 334 333 332 331 330 330 329 328 327 327 327 327 327 327 328 328 328 329 329 329
316 317 317 317 319 322 322 322 324 327 327 326 326 325 325 325 325 325 326 327 327 326 327 328 329 329 329 329 330 330 331 333 334 334 334 334 335 336 336 336 335 335 336 337 337 337 337 337 338 337 337 337 337 336 337 337 336 336 337 337 337 337 337 336 336 335 335 335 334 333 332 331 330 330 329 329 329 328 328 329 329 330 330 330 330 330 330
315 316 317 318 319 321 321 321 323 325 325 323 324 324 324 324 325 325 325 325 325 325 326 328 328 328 327 328 329 330 331 332 333 333 334 334 335 335 335 334 335 336 337 337 337 336 336 336 337 337 337 336 336 336 337 337 337 337 337 337 337 338 337 337 336 336 336 335 334 333 332 332 331 331 331 330 331 331 331 331 331 331 331 331 331 332 332
315 316 316 316 317 319 320 320 321 322 322 322 323 324 324 324 324 325 324 324 324 325 325 326 327 327 327 328 329 330 331 332 333 333 334 334 334 334 335 335 336 337 336 336 336 336 336 336 336 337 336 336 336 336 337 337 337 337 337 337 338 338 338 337 337 336 336 335 334 333 333 332 332 332 331 331 332 333 332 332 332 332 332 332 332 332 332
314 315 315 315 316 318 319 319 319 319 320 321 321 322 323 323 323 323 323 323 324 324 325 325 326 326 326 328 329 330 331 332 332 333 334 334 333 334 336 336 336 336 336 335 335 335 335 335 336 336 336 336 336 336 337 337 337 338 338 338 338 338 338 337 337 337 336 335 334 333 333 333 333 332 332 333 333 333 333 334 334 334 333 332 332 332 333
313 313 314 314 314 315 317 317 317 317 319 320 320 321 321 322 322 323 322 322 323 324 325 326 326 326 327 328 330 330 331 332 332 332 334 334 334 334 336 336 335 335 335 334 333 334 334 335 335 335 336 336 336 336 337 337 338 338 338 338 338 338 338 338 337 337 336 335 334 334 334 333 333 333 333 333 333 334 335 335 335 334 333 333 333 333 333
313 313 313 313 313 314 315 316 316 317 318 319 319 319 320 321 322 322 322 322 323 324 325 325 326 326 327 328 330 330 331 332 332 333 334 334 334 335 335 334 334 334 334 334 333 333 334 334 335 335 336 336 336 336 337 337 337 338 338 338 338 338 338 338 337 337 336 335 335 334 334 334 334 334 334 334 334 335 335 335 334 334 334 334 334 332 331
313 313 312 313 313 313 313 315 315 316 316 317 318 319 320 321 321 321 321 322 323 324 324 324 325 326 327 328 330 330 330 331 331 332 333 333 334 334 333 332 332 333 333 333 333 333 333 334 335 335 336 336 336 336 337 337 337 338 338 338 338 338 338 338 337 337 336 336 335 334 334 334 334 334 335 335 334 334 334 334 335 335 335 334 333 332 332
310 310 311 312 312 312 313 314 315 316 316 317 317 318 319 320 320 320 321 322 323 323 324 324 325 326 327 328 329 329 329 330 331 332 332 332 333 333 332 331 332 332 332 332 332 333 333 334 335 335 336 336 336 337 337 337 337 337 338 338 338 338 338 338 338 337 336 336 336 335 335 334 335 335 335 334 334 334 334 336 336 336 335 334 334 333 333
308 309 309 310 311 312 313 314 315 315 315 316 317 318 319 320 320 320 320 321 322 323 323 323 325 326 327 327 328 328 328 329 330 331 330 331 331 332 331 330 331 331 331 331 332 333 334 334 335 335 336 336 336 336 336 336 337 337 338 338 339 339 338 338 338 338 337 336 336 335 335 335 335 335 334 334 335 336 337 336 335 335 335 335 335 336 336